Weather reports worldwide

Advertisment
Elphin, United Kingdom (99153): temperature & dewpoint: 19.05.2018 04:00:00 - 25.05.2018 04:00:00 (BST)Elphin, United Kingdom (99153): precipitation: 19.05.2018 04:00:00 - 25.05.2018 04:00:00 (BST)
Date & Time tt [°C] td [°C] rr [mm]
25.05.2018 04:00:00 9,9 9,3 -
25.05.2018 03:00:00 9,9 9,4 0,0
25.05.2018 02:00:00 10,2 9,3 0,0
25.05.2018 01:00:00 10,0 8,7 0,0
25.05.2018 00:00:00 10,7 9,2 0,0
24.05.2018 23:00:00 11,4 8,6 0,0
24.05.2018 22:00:00 12,6 9,4 0,0
24.05.2018 21:00:00 13,3 8,8 0,0
24.05.2018 20:00:00 14,9 9,2 0,0
24.05.2018 19:00:00 18,6 10,5 0,0
24.05.2018 18:00:00 19,5 10,5 0,0
24.05.2018 17:00:00 17,6 9,1 0,0
24.05.2018 16:00:00 19,6 8,2 0,0
24.05.2018 15:00:00 20,6 9,1 0,0
24.05.2018 14:00:00 20,6 9,1 0,0
24.05.2018 13:00:00 20,2 8,8 0,0
24.05.2018 12:00:00 19,6 8,6 0,0
24.05.2018 11:00:00 16,4 9,6 0,0
24.05.2018 10:00:00 13,3 10,0 0,0
24.05.2018 09:00:00 11,4 9,1 0,0
24.05.2018 08:00:00 8,3 7,6 0,0
24.05.2018 07:00:00 7,7 7,6 0,0
24.05.2018 06:00:00 6,6 6,6 0,0
24.05.2018 05:00:00 6,2 5,9 0,0
24.05.2018 04:00:00 6,9 6,1 0,0
24.05.2018 03:00:00 7,9 6,4 0,0
24.05.2018 02:00:00 8,7 6,4 0,0
24.05.2018 01:00:00 8,6 6,4 0,0
24.05.2018 00:00:00 8,3 6,3 0,0
23.05.2018 23:00:00 8,9 6,8 0,0
23.05.2018 22:00:00 9,7 7,3 0,0
23.05.2018 21:00:00 11,6 8,0 0,0
23.05.2018 20:00:00 13,7 8,3 0,0
23.05.2018 19:00:00 16,4 8,6 0,0
23.05.2018 18:00:00 17,4 9,5 0,0
23.05.2018 17:00:00 17,0 9,0 0,0
23.05.2018 16:00:00 17,9 7,6 0,0
23.05.2018 15:00:00 18,3 6,8 0,0
23.05.2018 14:00:00 - - 0,0
23.05.2018 13:00:00 - - -
23.05.2018 12:00:00 16,0 7,8 0,0
23.05.2018 11:00:00 13,9 7,7 0,0
23.05.2018 10:00:00 11,9 7,0 0,0
23.05.2018 09:00:00 10,5 6,5 0,0
23.05.2018 08:00:00 9,5 6,3 0,0
23.05.2018 07:00:00 8,1 6,4 0,0
23.05.2018 06:00:00 6,4 5,7 0,0
23.05.2018 05:00:00 6,0 5,4 0,0
23.05.2018 04:00:00 6,3 5,4 0,0
23.05.2018 03:00:00 6,9 5,6 0,0
23.05.2018 02:00:00 7,1 5,6 0,0
23.05.2018 01:00:00 6,7 5,1 0,0
23.05.2018 00:00:00 6,8 4,9 0,0
22.05.2018 23:00:00 7,5 5,1 0,0
22.05.2018 22:00:00 7,8 4,8 0,0
22.05.2018 21:00:00 8,2 4,5 0,0
22.05.2018 20:00:00 8,9 4,5 0,0
22.05.2018 19:00:00 9,4 4,9 0,0
22.05.2018 18:00:00 11,1 5,9 0,0
22.05.2018 17:00:00 10,4 5,6 0,0
22.05.2018 16:00:00 10,5 5,5 0,0
22.05.2018 15:00:00 9,9 5,2 0,0
22.05.2018 14:00:00 9,9 5,6 0,0
22.05.2018 13:00:00 9,5 5,3 0,0
22.05.2018 12:00:00 8,8 4,9 0,0
22.05.2018 11:00:00 8,8 5,1 0,0
22.05.2018 10:00:00 8,8 4,2 0,0
22.05.2018 09:00:00 8,7 3,9 0,0
22.05.2018 08:00:00 7,5 4,0 0,0
22.05.2018 07:00:00 5,9 4,0 0,0
22.05.2018 06:00:00 2,5 2,3 0,0
22.05.2018 05:00:00 1,8 1,8 0,0
22.05.2018 04:00:00 0,5 0,4 0,0
22.05.2018 03:00:00 0,5 0,4 0,0
22.05.2018 02:00:00 0,3 -0,2 0,0
22.05.2018 01:00:00 2,8 2,2 0,0
22.05.2018 00:00:00 4,2 3,5 0,0
21.05.2018 23:00:00 5,2 4,4 0,0
21.05.2018 22:00:00 6,4 4,6 0,0
21.05.2018 21:00:00 6,6 5,2 0,0
21.05.2018 20:00:00 6,6 5,1 0,4
21.05.2018 19:00:00 6,8 5,3 0,8
21.05.2018 18:00:00 6,5 5,2 1,4
21.05.2018 17:00:00 7,3 6,0 1,0
21.05.2018 16:00:00 8,1 6,8 0,6
21.05.2018 15:00:00 7,8 6,5 0,6
21.05.2018 14:00:00 7,5 6,5 0,2
21.05.2018 13:00:00 7,8 6,8 0,2
21.05.2018 12:00:00 8,3 7,7 0,4
21.05.2018 11:00:00 8,5 8,1 1,0
21.05.2018 10:00:00 9,5 9,3 1,4
21.05.2018 09:00:00 9,1 9,0 1,4
21.05.2018 08:00:00 9,0 8,8 1,6
21.05.2018 07:00:00 9,3 9,2 1,6
21.05.2018 06:00:00 9,1 9,0 2,6
21.05.2018 05:00:00 9,1 8,9 2,2
21.05.2018 04:00:00 9,3 9,2 0,4
21.05.2018 03:00:00 9,4 9,2 0,4
21.05.2018 02:00:00 9,7 9,5 0,8
21.05.2018 01:00:00 10,0 9,7 0,4
21.05.2018 00:00:00 10,0 9,7 0,8
20.05.2018 23:00:00 10,4 10,1 1,6
20.05.2018 22:00:00 12,0 11,4 0,2
20.05.2018 21:00:00 12,5 11,8 0,0
20.05.2018 20:00:00 12,9 11,9 0,2
20.05.2018 19:00:00 13,2 12,0 0,2
20.05.2018 18:00:00 15,1 10,7 0,0
20.05.2018 17:00:00 15,3 10,8 0,0
20.05.2018 16:00:00 15,1 11,0 0,0
20.05.2018 15:00:00 16,0 10,6 0,0
20.05.2018 14:00:00 16,9 10,6 0,0
20.05.2018 13:00:00 17,8 11,2 0,0
20.05.2018 12:00:00 17,0 11,1 0,0
20.05.2018 11:00:00 15,9 10,4 0,0
20.05.2018 10:00:00 15,5 10,0 0,0
20.05.2018 09:00:00 14,8 9,8 0,0
20.05.2018 08:00:00 14,4 9,3 0,0
20.05.2018 07:00:00 13,8 8,7 0,0
20.05.2018 06:00:00 13,8 8,1 0,0
20.05.2018 05:00:00 13,9 8,2 0,0
20.05.2018 04:00:00 13,4 8,7 0,0
20.05.2018 03:00:00 13,2 10,0 0,2
20.05.2018 02:00:00 14,7 8,9 0,0
20.05.2018 01:00:00 15,8 6,8 0,0
20.05.2018 00:00:00 15,9 6,3 0,0
19.05.2018 23:00:00 15,8 6,0 0,0
19.05.2018 22:00:00 15,5 5,9 0,0
19.05.2018 21:00:00 16,2 6,9 0,0
19.05.2018 20:00:00 16,4 7,5 0,0
19.05.2018 19:00:00 17,6 7,4 0,0
19.05.2018 18:00:00 18,2 6,8 0,0
19.05.2018 17:00:00 19,0 7,1 0,0
19.05.2018 16:00:00 19,0 7,6 0,0
19.05.2018 15:00:00 18,4 8,8 0,0
19.05.2018 14:00:00 17,3 8,0 0,0
19.05.2018 13:00:00 17,4 8,3 0,0
19.05.2018 12:00:00 16,2 7,7 0,0
19.05.2018 11:00:00 16,0 7,5 0,0
19.05.2018 10:00:00 15,9 7,6 0,0
19.05.2018 09:00:00 15,5 8,3 0,0
19.05.2018 08:00:00 13,9 8,4 0,0
19.05.2018 07:00:00 12,5 8,5 0,0
19.05.2018 06:00:00 11,4 8,4 0,0
19.05.2018 05:00:00 10,6 8,4 0,0
19.05.2018 04:00:00 10,4 8,0 0,0

tt = temperature
td = dewpoint
rr = precipitation

Next stations